User: anonymous   Login
Location: Fishcreek Rd Observing Site
(41.1865°N, 81.4271°W)
Time: 14:40:05
(UTC-04:00)
Language:

Iridium 75 - Orbit

View from above orbital plane
View from above orbital plane
View from above satellite
View from above satellite

Ground track
Ground track

The orbit data is extracted from the following two-line orbital elements,

1 25346U 98032E   16272.73665846  .00000024  00000-0  15670-5 0  9995
2 25346  86.3985 333.4239 0002273  95.7385  49.1821 14.34224236962192
Epoch (UTC): 28 September 2016 17:40:47
Eccentricity: 0.0002273
inclination: 86.3985°
perigee height: 776 km
apogee height: 779 km
right ascension of ascending node: 333.4239°
argument of perigee: 95.7385°
revolutions per day: 14.34224236
mean anomaly at epoch: 49.1821°
orbit number at epoch: 96219

The dashed part of the orbit path shows where the satellite is in the earth's shadow,  

DLR